Weather in Novouralsk

Russia / Sverdlovsk Oblast     57°14′50″N   60°05′44″E
temp.,
°C
wind,
m/s
gust,
m/s
humid.,
%
clouds,
%
prec.,
mm/h
press.,
hPa
HPBL,
m
18 may, tue
tue1823:00+14sw3689100 7.3 1015123
02:00+15w289173 0.0 1014163
05:00+14w38915 0.0 1014204
08:00+19nnw25650 0.0 1014356
11:00+22nnw46478 0.1 10151943
14:00+21nne654942 0.0 10161563
17:00+18nne675535 0.1 10181374
20:00+15ne576894 0.0 1020956
19 may, wed
wed1923:00+11ne3107719 0.0 1022453
02:00+9ne28870 0.0 1023261
05:00+7ne22965 0.0 102549
08:00+11ene35655 0.0 1025650
11:00+16ene34446 0.0 10251120
14:00+19e333695 0.0 10241454
17:00+20ene22345 0.0 10231700
20:00+16e225066 0.0 102335
20 may, thu
thu2023:00+12sse1158100 0.0 102410
02:00+10ssw22656 0.0 102410
05:00+9wsw22746 0.0 102517
08:00+16wsw24535 0.0 1024327
11:00+21w223747 0.0 10231232
14:00+24w22282 0.0 10211624
17:00+25w22270 0.0 10201859
20:00+21wsw11440 0.0 102011
21 may, fri
fri2123:00+15w11510 0.0 102011
02:00+13sw21590 0.0 102110
05:00+13wsw11630 0.0 102110
08:00+19ssw23420 0.0 1020240
11:00+24ssw34290 0.0 10201602
14:00+26ssw34230 0.0 10192308
17:00+26ssw45245 0.0 10182652
20:00+21wsw22435 0.0 101828
22 may, sat
sat2223:00+16ssw11530 0.0 101911
02:00+14wsw22605 0.0 101911
05:00+14sw236872 0.0 102063
08:00+18wsw4764100 0.0 1020491
11:00+22wsw58440 0.0 10201888
14:00+25wsw57347 0.0 10192644
17:00+24wsw563326 0.0 10192447
20:00+20wsw3850100 0.0 1019330